Location: Twentynine Palms Airport
(34.1316°N, 115.9458°W)
Time: 12:06:16
(UTC-07:00)

Oscar 19 - Visible Passes

Search period start: 24 April 2017 00:00
Search period end: 04 May 2017 00:00
Orbit: 774 x 790 km, 98.6° (Epoch: 23 April)

Date Brightness Start Highest point End Pass type
(mag) Time Alt. Az. Time Alt. Az. Time Alt. Az.
24 Apr 12.4 02:34:39 10° N 02:37:01 27° N 02:37:01 27° N visible
25 Apr 12.7 02:02:50 10° NNE 02:04:54 24° NNE 02:04:54 24° NNE visible
25 Apr 12.8 03:44:17 10° NW 03:45:28 12° NW 03:45:28 12° NW visible
26 Apr 13.2 01:31:32 10° NE 01:32:47 16° NE 01:32:47 16° NE visible
26 Apr 12.4 03:10:57 10° NNW 03:13:20 22° NW 03:13:20 22° NW visible
27 Apr 12.2 02:38:34 10° N 02:41:13 30° N 02:41:13 30° N visible
28 Apr 12.5 02:06:41 10° NNE 02:09:06 28° NNE 02:09:06 28° NNE visible
28 Apr 12.9 03:48:31 10° NW 03:49:39 12° NW 03:49:39 12° NW visible
29 Apr 13.0 01:35:19 10° NE 01:36:58 19° NE 01:36:58 19° NE visible
29 Apr 12.4 03:14:56 10° NNW 03:17:32 21° NW 03:17:32 21° NW visible
30 Apr 12.0 02:42:28 10° N 02:45:24 32° NNW 02:45:24 32° NNW visible
01 May 12.2 02:10:32 10° NNE 02:13:16 32° NNE 02:13:16 32° NNE visible
01 May 12.9 03:52:54 10° NW 03:53:50 11° WNW 03:53:50 11° WNW visible
02 May 12.8 01:39:06 10° NNE 01:41:08 22° NE 01:41:08 22° NE visible
02 May 12.3 03:18:55 10° NNW 03:21:42 21° NW 03:21:42 21° NW visible
03 May 13.3 01:08:29 10° NE 01:09:00 12° ENE 01:09:00 12° ENE visible
03 May 11.9 02:46:23 10° N 02:49:34 33° NNW 02:49:34 33° NNW visible
